Time,TemperatureF,DewpointF,PressureIn,WindDirection,WindDirectionDegrees,WindSpeedMPH,WindSpeedGustMPH,Humidity,HourlyPrecipIn,Conditions,Clouds,dailyrainin,SoftwareType,DateUTC
2013-02-09 00:00:00,17.3,14.9,30.17,NNW,345,0.0,0.0,90,0.00,,,0.00,Wunderground v.1.15,2013-02-09 05:00:00,
2013-02-09 00:05:00,17.3,14.9,30.17,NNW,332,0.0,0.0,90,0.00,,,0.00,Wunderground v.1.15,2013-02-09 05:05:00,
2013-02-09 00:15:00,17.4,15.0,30.18,NE,45,0.0,0.0,90,0.00,,,0.00,Wunderground v.1.15,2013-02-09 05:15:00,
2013-02-09 00:20:00,17.4,15.0,30.18,NW,314,0.0,0.0,90,0.00,,,0.00,Wunderground v.1.15,2013-02-09 05:20:00,
2013-02-09 00:25:00,17.4,15.0,30.18,NW,309,0.0,0.0,90,0.00,,,0.00,Wunderground v.1.15,2013-02-09 05:25:00,
2013-02-09 00:30:00,17.5,15.1,30.18,North,356,0.0,2.0,90,0.00,,,0.00,Wunderground v.1.15,2013-02-09 05:30:00,
2013-02-09 00:35:00,17.5,15.3,30.18,WNW,300,0.0,2.0,91,0.00,,,0.00,Wunderground v.1.15,2013-02-09 05:35:00,
2013-02-09 00:45:00,17.5,15.3,30.19,NW,322,0.0,0.0,91,0.00,,,0.00,Wunderground v.1.15,2013-02-09 05:45:00,
2013-02-09 00:55:00,17.5,15.3,30.19,WNW,289,0.0,0.0,91,0.00,,,0.00,Wunderground v.1.15,2013-02-09 05:55:00,
2013-02-09 01:00:00,17.5,15.3,30.19,NNW,338,0.0,0.0,91,0.00,,,0.00,Wunderground v.1.15,2013-02-09 06:00:00,
2013-02-09 01:10:00,17.5,15.3,30.20,North,352,0.0,0.0,91,0.00,,,0.00,Wunderground v.1.15,2013-02-09 06:10:00,
2013-02-09 01:15:00,17.6,15.4,30.20,West,269,0.0,0.0,91,0.00,,,0.00,Wunderground v.1.15,2013-02-09 06:15:00,
2013-02-09 01:20:00,17.7,15.5,30.20,NW,314,0.0,0.0,91,0.00,,,0.00,Wunderground v.1.15,2013-02-09 06:20:00,
2013-02-09 01:25:00,17.7,15.5,30.20,North,355,0.0,0.0,91,0.00,,,0.00,Wunderground v.1.15,2013-02-09 06:25:00,
2013-02-09 01:35:00,17.8,15.6,30.20,NW,312,0.0,0.0,91,0.00,,,0.00,Wunderground v.1.15,2013-02-09 06:35:00,
2013-02-09 01:40:00,17.9,15.7,30.21,NNW,340,0.0,0.0,91,0.00,,,0.00,Wunderground v.1.15,2013-02-09 06:40:00,
2013-02-09 01:45:00,18.0,15.8,30.20,NW,309,0.0,0.0,91,0.00,,,0.00,Wunderground v.1.15,2013-02-09 06:45:00,
2013-02-09 01:55:00,18.1,15.9,30.21,NW,317,0.0,1.0,91,0.00,,,0.00,Wunderground v.1.15,2013-02-09 06:55:00,
2013-02-09 02:00:00,18.2,16.0,30.21,NNE,13,0.0,0.0,91,0.00,,,0.00,Wunderground v.1.15,2013-02-09 07:00:00,
2013-02-09 02:10:00,18.2,16.0,30.22,NNW,335,0.0,0.0,91,0.00,,,0.00,Wunderground v.1.15,2013-02-09 07:10:00,
2013-02-09 02:15:00,18.2,16.0,30.23,NNE,12,0.0,0.0,91,0.00,,,0.00,Wunderground v.1.15,2013-02-09 07:15:00,
2013-02-09 02:20:00,18.3,16.1,30.23,NW,319,0.0,0.0,91,0.00,,,0.00,Wunderground v.1.15,2013-02-09 07:20:00,
2013-02-09 02:30:00,18.3,16.1,30.23,West,262,0.0,0.0,91,0.00,,,0.00,Wunderground v.1.15,2013-02-09 07:30:00,
2013-02-09 02:35:00,18.4,16.2,30.23,WNW,294,0.0,0.0,91,0.00,,,0.00,Wunderground v.1.15,2013-02-09 07:35:00,
2013-02-09 02:45:00,18.4,16.2,30.23,NNW,329,0.0,0.0,91,0.00,,,0.00,Wunderground v.1.15,2013-02-09 07:45:00,
2013-02-09 02:50:00,18.5,16.3,30.23,NNW,328,0.0,0.0,91,0.00,,,0.00,Wunderground v.1.15,2013-02-09 07:50:00,
2013-02-09 02:55:00,18.4,16.2,30.23,NNW,348,0.0,0.0,91,0.00,,,0.00,Wunderground v.1.15,2013-02-09 07:55:00,
2013-02-09 03:05:00,18.5,16.1,30.24,NW,309,0.0,1.0,90,0.00,,,0.00,Wunderground v.1.15,2013-02-09 08:05:00,
2013-02-09 03:10:00,18.5,16.1,30.25,NW,322,0.0,0.0,90,0.00,,,0.00,Wunderground v.1.15,2013-02-09 08:10:00,
2013-02-09 03:15:00,18.4,16.0,30.25,NNE,15,0.0,0.0,90,0.00,,,0.00,Wunderground v.1.15,2013-02-09 08:15:00,
2013-02-09 03:25:00,18.5,16.3,30.25,NW,321,0.0,0.0,91,0.00,,,0.00,Wunderground v.1.15,2013-02-09 08:25:00,
2013-02-09 03:35:00,18.5,16.3,30.26,NW,314,0.0,0.0,91,0.00,,,0.00,Wunderground v.1.15,2013-02-09 08:35:00,
2013-02-09 03:40:00,18.5,16.3,30.26,WSW,238,0.0,0.0,91,0.00,,,0.00,Wunderground v.1.15,2013-02-09 08:40:00,
2013-02-09 03:50:00,18.5,16.3,30.26,NNE,17,0.0,1.0,91,0.00,,,0.00,Wunderground v.1.15,2013-02-09 08:50:00,
2013-02-09 04:00:00,18.3,15.9,30.27,SW,236,0.0,0.0,90,0.00,,,0.00,Wunderground v.1.15,2013-02-09 09:00:00,
2013-02-09 04:10:00,18.2,15.8,30.28,WSW,240,0.0,0.0,90,0.00,,,0.00,Wunderground v.1.15,2013-02-09 09:10:00,
2013-02-09 04:15:00,18.1,15.7,30.28,NE,43,0.0,0.0,90,0.00,,,0.00,Wunderground v.1.15,2013-02-09 09:15:00,
2013-02-09 04:20:00,18.1,15.7,30.28,WSW,256,0.0,1.0,90,0.00,,,0.00,Wunderground v.1.15,2013-02-09 09:20:00,
2013-02-09 04:30:00,17.8,15.4,30.29,NE,51,0.0,0.0,90,0.00,,,0.00,Wunderground v.1.15,2013-02-09 09:30:00,
2013-02-09 04:35:00,17.7,15.0,30.29,NW,304,0.0,0.0,89,0.00,,,0.00,Wunderground v.1.15,2013-02-09 09:35:00,
2013-02-09 04:40:00,17.7,15.0,30.29,WSW,247,0.0,0.0,89,0.00,,,0.00,Wunderground v.1.15,2013-02-09 09:40:00,
2013-02-09 04:45:00,17.6,14.9,30.29,West,271,0.0,0.0,89,0.00,,,0.00,Wunderground v.1.15,2013-02-09 09:45:00,
2013-02-09 04:55:00,17.6,14.9,30.30,NNW,333,0.0,0.0,89,0.00,,,0.00,Wunderground v.1.15,2013-02-09 09:55:00,
2013-02-09 05:00:00,17.5,14.8,30.30,SW,228,0.0,1.0,89,0.00,,,0.00,Wunderground v.1.15,2013-02-09 10:00:00,
2013-02-09 05:10:00,17.5,14.8,30.31,NW,326,0.0,0.0,89,0.00,,,0.00,Wunderground v.1.15,2013-02-09 10:10:00,
2013-02-09 05:15:00,17.5,14.8,30.31,SW,228,0.0,0.0,89,0.00,,,0.00,Wunderground v.1.15,2013-02-09 10:15:00,
2013-02-09 05:20:00,17.5,15.1,30.31,WSW,245,0.0,0.0,90,0.00,,,0.00,Wunderground v.1.15,2013-02-09 10:20:00,
2013-02-09 05:25:00,17.5,14.8,30.31,North,353,0.0,0.0,89,0.00,,,0.00,Wunderground v.1.15,2013-02-09 10:25:00,
2013-02-09 05:30:00,17.4,14.7,30.31,WSW,249,0.0,0.0,89,0.00,,,0.00,Wunderground v.1.15,2013-02-09 10:30:00,
2013-02-09 05:35:00,17.4,14.7,30.31,SW,235,0.0,0.0,89,0.00,,,0.00,Wunderground v.1.15,2013-02-09 10:35:00,
2013-02-09 05:40:00,17.4,14.7,30.31,NW,318,0.0,0.0,89,0.00,,,0.00,Wunderground v.1.15,2013-02-09 10:40:00,
2013-02-09 05:50:00,17.3,14.6,30.32,NW,305,0.0,0.0,89,0.00,,,0.00,Wunderground v.1.15,2013-02-09 10:50:00,
2013-02-09 06:00:00,17.2,14.3,30.32,North,352,0.0,0.0,88,0.00,,,0.00,Wunderground v.1.15,2013-02-09 11:00:00,
2013-02-09 06:10:00,17.1,14.2,30.33,WNW,302,0.0,0.0,88,0.00,,,0.00,Wunderground v.1.15,2013-02-09 11:10:00,
2013-02-09 06:15:00,17.0,14.1,30.33,North,1,0.0,0.0,88,0.00,,,0.00,Wunderground v.1.15,2013-02-09 11:15:00,
2013-02-09 06:25:00,16.9,13.7,30.33,NW,319,0.0,0.0,87,0.00,,,0.00,Wunderground v.1.15,2013-02-09 11:25:00,
2013-02-09 06:35:00,16.7,13.5,30.33,NNW,328,0.0,0.0,87,0.00,,,0.00,Wunderground v.1.15,2013-02-09 11:35:00,
2013-02-09 06:40:00,16.6,13.4,30.34,NW,321,0.0,0.0,87,0.00,,,0.00,Wunderground v.1.15,2013-02-09 11:40:00,
2013-02-09 06:50:00,16.5,13.3,30.34,NW,319,0.0,0.0,87,0.00,,,0.00,Wunderground v.1.15,2013-02-09 11:50:00,
2013-02-09 06:55:00,16.4,13.2,30.34,NW,319,0.0,0.0,87,0.00,,,0.00,Wunderground v.1.15,2013-02-09 11:55:00,
2013-02-09 07:05:00,16.3,13.1,30.35,NNW,340,0.0,0.0,87,0.00,,,0.00,Wunderground v.1.15,2013-02-09 12:05:00,
2013-02-09 07:15:00,16.2,13.0,30.36,North,1,0.0,0.0,87,0.00,,,0.00,Wunderground v.1.15,2013-02-09 12:15:00,
2013-02-09 07:25:00,16.2,13.3,30.37,North,8,0.0,0.0,88,0.00,,,0.00,Wunderground v.1.15,2013-02-09 12:25:00,
2013-02-09 07:30:00,16.3,13.4,30.37,South,191,0.0,0.0,88,0.00,,,0.00,Wunderground v.1.15,2013-02-09 12:30:00,
2013-02-09 07:35:00,16.2,13.3,30.38,NNW,334,0.0,0.0,88,0.00,,,0.00,Wunderground v.1.15,2013-02-09 12:35:00,
2013-02-09 07:40:00,16.2,13.3,30.38,WNW,298,0.0,0.0,88,0.00,,,0.00,Wunderground v.1.15,2013-02-09 12:40:00,
2013-02-09 07:50:00,16.1,12.9,30.38,North,356,0.0,0.0,87,0.00,,,0.00,Wunderground v.1.15,2013-02-09 12:50:00,
2013-02-09 08:00:00,16.2,13.3,30.39,NNW,329,0.0,0.0,88,0.00,,,0.00,Wunderground v.1.15,2013-02-09 13:00:00,
2013-02-09 08:10:00,16.3,13.4,30.39,WNW,290,0.0,0.0,88,0.00,,,0.00,Wunderground v.1.15,2013-02-09 13:10:00,
2013-02-09 08:15:00,16.3,13.4,30.39,North,349,0.0,0.0,88,0.00,,,0.00,Wunderground v.1.15,2013-02-09 13:15:00,
2013-02-09 08:20:00,16.3,13.4,30.39,WNW,302,0.0,0.0,88,0.00,,,0.00,Wunderground v.1.15,2013-02-09 13:20:00,
2013-02-09 08:25:00,16.3,13.1,30.40,WNW,290,0.0,0.0,87,0.00,,,0.00,Wunderground v.1.15,2013-02-09 13:25:00,
2013-02-09 08:35:00,16.4,13.2,30.40,North,9,0.0,0.0,87,0.00,,,0.00,Wunderground v.1.15,2013-02-09 13:35:00,
2013-02-09 08:45:00,16.6,13.4,30.41,NNE,22,0.0,0.0,87,0.00,,,0.00,Wunderground v.1.15,2013-02-09 13:45:00,
2013-02-09 08:50:00,16.7,13.5,30.41,NNE,13,0.0,0.0,87,0.00,,,0.00,Wunderground v.1.15,2013-02-09 13:50:00,
2013-02-09 08:55:00,16.8,13.6,30.41,WSW,249,0.0,1.0,87,0.00,,,0.00,Wunderground v.1.15,2013-02-09 13:55:00,
2013-02-09 09:00:00,16.8,13.3,30.41,SSW,200,0.0,0.0,86,0.00,,,0.00,Wunderground v.1.15,2013-02-09 14:00:00,
2013-02-09 09:05:00,16.8,13.3,30.40,SW,236,0.0,0.0,86,0.00,,,0.00,Wunderground v.1.15,2013-02-09 14:05:00,
2013-02-09 09:10:00,16.8,13.3,30.40,NW,305,0.0,0.0,86,0.00,,,0.00,Wunderground v.1.15,2013-02-09 14:10:00,
2013-02-09 09:20:00,17.0,13.5,30.41,NNE,18,0.0,2.0,86,0.00,,,0.00,Wunderground v.1.15,2013-02-09 14:20:00,
2013-02-09 09:30:00,17.3,13.8,30.41,NW,318,0.0,0.0,86,0.00,,,0.00,Wunderground v.1.15,2013-02-09 14:30:00,
2013-02-09 09:35:00,17.7,14.2,30.40,West,280,0.0,0.0,86,0.00,,,0.00,Wunderground v.1.15,2013-02-09 14:35:00,
2013-02-09 09:45:00,18.3,14.5,30.41,NW,326,0.0,0.0,85,0.00,,,0.00,Wunderground v.1.15,2013-02-09 14:45:00,
2013-02-09 09:55:00,18.5,14.7,30.41,WSW,240,0.0,0.0,85,0.00,,,0.00,Wunderground v.1.15,2013-02-09 14:55:00,
2013-02-09 10:05:00,18.5,14.7,30.41,WNW,287,0.0,0.0,85,0.00,,,0.00,Wunderground v.1.15,2013-02-09 15:05:00,
2013-02-09 10:10:00,18.6,14.6,30.41,West,267,0.0,0.0,84,0.00,,,0.00,Wunderground v.1.15,2013-02-09 15:10:00,
2013-02-09 10:15:00,18.8,14.8,30.41,North,356,0.0,0.0,84,0.00,,,0.00,Wunderground v.1.15,2013-02-09 15:15:00,
2013-02-09 10:20:00,18.9,14.9,30.41,NNE,17,0.0,0.0,84,0.00,,,0.00,Wunderground v.1.15,2013-02-09 15:20:00,
2013-02-09 10:30:00,18.6,14.3,30.41,North,352,0.0,0.0,83,0.00,,,0.00,Wunderground v.1.15,2013-02-09 15:30:00,
2013-02-09 10:40:00,18.9,14.9,30.41,SW,232,0.0,0.0,84,0.00,,,0.00,Wunderground v.1.15,2013-02-09 15:40:00,
2013-02-09 10:50:00,19.0,14.7,30.41,WSW,239,0.0,0.0,83,0.00,,,0.00,Wunderground v.1.15,2013-02-09 15:50:00,
2013-02-09 11:00:00,19.2,14.6,30.42,NNW,347,0.0,0.0,82,0.00,,,0.00,Wunderground v.1.15,2013-02-09 16:00:00,
2013-02-09 11:10:00,19.3,15.0,30.42,SW,236,0.0,0.0,83,0.00,,,0.00,Wunderground v.1.15,2013-02-09 16:10:00,
2013-02-09 11:15:00,19.6,15.0,30.43,WSW,242,0.0,0.0,82,0.00,,,0.00,Wunderground v.1.15,2013-02-09 16:15:00,
2013-02-09 11:20:00,19.7,15.1,30.43,SW,226,0.0,0.0,82,0.00,,,0.00,Wunderground v.1.15,2013-02-09 16:20:00,
2013-02-09 11:25:00,19.7,15.1,30.43,WSW,239,0.0,0.0,82,0.00,,,0.00,Wunderground v.1.15,2013-02-09 16:25:00,
2013-02-09 11:30:00,19.5,14.6,30.43,NNW,340,0.0,1.0,81,0.00,,,0.00,Wunderground v.1.15,2013-02-09 16:30:00,
2013-02-09 11:40:00,19.3,15.0,30.43,North,354,0.0,0.0,83,0.00,,,0.00,Wunderground v.1.15,2013-02-09 16:40:00,
2013-02-09 11:45:00,19.6,15.3,30.43,SSW,208,0.0,0.0,83,0.00,,,0.00,Wunderground v.1.15,2013-02-09 16:45:00,
2013-02-09 11:50:00,19.9,15.3,30.43,WNW,288,0.0,0.0,82,0.00,,,0.00,Wunderground v.1.15,2013-02-09 16:50:00,
2013-02-09 12:00:00,19.8,14.9,30.43,SW,232,0.0,0.0,81,0.00,,,0.00,Wunderground v.1.15,2013-02-09 17:00:00,
2013-02-09 12:05:00,20.1,15.2,30.43,WSW,249,0.0,0.0,81,0.00,,,0.00,Wunderground v.1.15,2013-02-09 17:05:00,
2013-02-09 12:10:00,20.6,16.0,30.42,SSW,212,0.0,0.0,82,0.00,,,0.00,Wunderground v.1.15,2013-02-09 17:10:00,
2013-02-09 12:15:00,21.2,16.0,30.42,SW,233,0.0,0.0,80,0.00,,,0.00,Wunderground v.1.15,2013-02-09 17:15:00,
2013-02-09 12:20:00,21.4,15.9,30.42,NW,312,0.0,0.0,79,0.00,,,0.00,Wunderground v.1.15,2013-02-09 17:20:00,
2013-02-09 12:30:00,21.2,15.7,30.42,West,271,0.0,0.0,79,0.00,,,0.00,Wunderground v.1.15,2013-02-09 17:30:00,
2013-02-09 12:35:00,21.6,15.8,30.42,SSW,197,0.0,0.0,78,0.00,,,0.00,Wunderground v.1.15,2013-02-09 17:35:00,
2013-02-09 12:45:00,21.6,16.1,30.42,WSW,243,0.0,0.0,79,0.00,,,0.00,Wunderground v.1.15,2013-02-09 17:45:00,
2013-02-09 12:50:00,22.0,16.5,30.42,SSW,212,0.0,0.0,79,0.00,,,0.00,Wunderground v.1.15,2013-02-09 17:50:00,
2013-02-09 12:55:00,22.0,16.2,30.42,SW,215,0.0,0.0,78,0.00,,,0.00,Wunderground v.1.15,2013-02-09 17:55:00,
2013-02-09 13:05:00,22.5,16.7,30.42,WSW,246,0.0,0.0,78,0.00,,,0.00,Wunderground v.1.15,2013-02-09 18:05:00,
2013-02-09 13:10:00,22.6,16.5,30.41,NNW,342,0.0,0.0,77,0.00,,,0.00,Wunderground v.1.15,2013-02-09 18:10:00,
2013-02-09 13:20:00,22.6,16.5,30.41,West,266,0.0,0.0,77,0.00,,,0.00,Wunderground v.1.15,2013-02-09 18:20:00,
2013-02-09 13:25:00,22.7,17.2,30.41,WSW,245,0.0,0.0,79,0.00,,,0.00,Wunderground v.1.15,2013-02-09 18:25:00,
2013-02-09 13:35:00,22.7,17.2,30.42,SW,219,0.0,0.0,79,0.00,,,0.00,Wunderground v.1.15,2013-02-09 18:35:00,
2013-02-09 13:40:00,22.6,17.1,30.42,WNW,301,0.0,1.0,79,0.00,,,0.00,Wunderground v.1.15,2013-02-09 18:40:00,
2013-02-09 13:50:00,22.3,17.1,30.42,NNW,336,0.0,0.0,80,0.00,,,0.00,Wunderground v.1.15,2013-02-09 18:50:00,
2013-02-09 13:55:00,22.5,17.3,30.42,NW,312,0.0,0.0,80,0.00,,,0.00,Wunderground v.1.15,2013-02-09 18:55:00,
2013-02-09 14:00:00,22.4,16.9,30.42,WSW,245,0.0,0.0,79,0.00,,,0.00,Wunderground v.1.15,2013-02-09 19:00:00,
2013-02-09 14:10:00,21.7,16.8,30.42,West,259,1.0,1.0,81,0.00,,,0.00,Wunderground v.1.15,2013-02-09 19:10:00,
2013-02-09 14:20:00,21.7,16.8,30.42,SW,226,0.0,0.0,81,0.00,,,0.00,Wunderground v.1.15,2013-02-09 19:20:00,
2013-02-09 14:25:00,21.5,16.6,30.42,SSW,212,0.0,2.0,81,0.00,,,0.00,Wunderground v.1.15,2013-02-09 19:25:00,
2013-02-09 14:30:00,21.3,16.1,30.42,West,266,0.0,0.0,80,0.00,,,0.00,Wunderground v.1.15,2013-02-09 19:30:00,
2013-02-09 14:40:00,21.8,16.9,30.42,WSW,252,0.0,0.0,81,0.00,,,0.00,Wunderground v.1.15,2013-02-09 19:40:00,
2013-02-09 14:50:00,21.8,16.6,30.42,SW,223,0.0,0.0,80,0.00,,,0.00,Wunderground v.1.15,2013-02-09 19:50:00,
2013-02-09 14:55:00,21.9,17.0,30.42,WSW,254,0.0,0.0,81,0.00,,,0.00,Wunderground v.1.15,2013-02-09 19:55:00,
2013-02-09 15:05:00,22.2,17.0,30.42,WSW,239,0.0,0.0,80,0.00,,,0.00,Wunderground v.1.15,2013-02-09 20:05:00,
2013-02-09 15:10:00,22.3,17.1,30.43,SW,218,0.0,0.0,80,0.00,,,0.00,Wunderground v.1.15,2013-02-09 20:10:00,
2013-02-09 15:20:00,22.2,17.3,30.42,NNE,16,0.0,1.0,81,0.00,,,0.00,Wunderground v.1.15,2013-02-09 20:20:00,
2013-02-09 15:25:00,22.1,16.9,30.43,West,277,0.0,1.0,80,0.00,,,0.00,Wunderground v.1.15,2013-02-09 20:25:00,
2013-02-09 15:30:00,22.2,17.3,30.43,WNW,298,0.0,1.0,81,0.00,,,0.00,Wunderground v.1.15,2013-02-09 20:30:00,
2013-02-09 15:35:00,22.2,17.3,30.43,SSW,209,0.0,1.0,81,0.00,,,0.00,Wunderground v.1.15,2013-02-09 20:35:00,
2013-02-09 15:45:00,22.1,16.9,30.43,SW,215,0.0,1.0,80,0.00,,,0.00,Wunderground v.1.15,2013-02-09 20:45:00,
2013-02-09 15:55:00,21.8,16.6,30.43,WSW,243,0.0,0.0,80,0.00,,,0.00,Wunderground v.1.15,2013-02-09 20:55:00,
2013-02-09 16:00:00,21.9,16.7,30.43,SW,226,0.0,0.0,80,0.00,,,0.00,Wunderground v.1.15,2013-02-09 21:00:00,
2013-02-09 16:10:00,21.8,16.9,30.43,South,173,0.0,1.0,81,0.00,,,0.00,Wunderground v.1.15,2013-02-09 21:10:00,
2013-02-09 16:15:00,21.7,16.8,30.42,SW,226,0.0,1.0,81,0.00,,,0.00,Wunderground v.1.15,2013-02-09 21:15:00,
2013-02-09 16:25:00,21.5,16.6,30.42,SW,232,0.0,0.0,81,0.00,,,0.00,Wunderground v.1.15,2013-02-09 21:25:00,
2013-02-09 16:30:00,21.5,16.6,30.42,WSW,249,0.0,0.0,81,0.00,,,0.00,Wunderground v.1.15,2013-02-09 21:30:00,
2013-02-09 16:40:00,21.1,16.2,30.42,SW,226,0.0,0.0,81,0.00,,,0.00,Wunderground v.1.15,2013-02-09 21:40:00,
2013-02-09 16:45:00,21.0,16.4,30.42,WNW,283,0.0,0.0,82,0.00,,,0.00,Wunderground v.1.15,2013-02-09 21:45:00,
2013-02-09 16:55:00,20.7,16.1,30.42,SW,215,0.0,0.0,82,0.00,,,0.00,Wunderground v.1.15,2013-02-09 21:55:00,
2013-02-09 17:00:00,20.4,15.8,30.42,SSW,213,0.0,0.0,82,0.00,,,0.00,Wunderground v.1.15,2013-02-09 22:00:00,
2013-02-09 17:10:00,19.9,15.3,30.43,WSW,237,0.0,0.0,82,0.00,,,0.00,Wunderground v.1.15,2013-02-09 22:10:00,
2013-02-09 17:20:00,19.5,15.2,30.43,SSW,198,0.0,0.0,83,0.00,,,0.00,Wunderground v.1.15,2013-02-09 22:20:00,
2013-02-09 17:30:00,19.0,14.7,30.43,West,274,0.0,0.0,83,0.00,,,0.00,Wunderground v.1.15,2013-02-09 22:30:00,
2013-02-09 17:40:00,18.5,14.5,30.43,SW,235,0.0,0.0,84,0.00,,,0.00,Wunderground v.1.15,2013-02-09 22:40:00,
2013-02-09 17:45:00,18.3,14.3,30.43,SW,214,0.0,0.0,84,0.00,,,0.00,Wunderground v.1.15,2013-02-09 22:45:00,
2013-02-09 17:50:00,18.1,14.4,30.43,SE,142,0.0,0.0,85,0.00,,,0.00,Wunderground v.1.15,2013-02-09 22:50:00,
2013-02-09 18:00:00,17.6,14.1,30.43,SE,139,0.0,0.0,86,0.00,,,0.00,Wunderground v.1.15,2013-02-09 23:00:00,
2013-02-09 18:10:00,17.1,13.9,30.43,SE,138,0.0,0.0,87,0.00,,,0.00,Wunderground v.1.15,2013-02-09 23:10:00,
2013-02-09 18:15:00,16.8,13.6,30.43,SE,138,0.0,0.0,87,0.00,,,0.00,Wunderground v.1.15,2013-02-09 23:15:00,
2013-02-09 18:20:00,16.6,13.7,30.43,SSE,155,0.0,0.0,88,0.00,,,0.00,Wunderground v.1.15,2013-02-09 23:20:00,
2013-02-09 18:30:00,16.2,13.3,30.43,SSE,150,0.0,0.0,88,0.00,,,0.00,Wunderground v.1.15,2013-02-09 23:30:00,
2013-02-09 18:35:00,15.8,12.9,30.43,SSE,149,0.0,0.0,88,0.00,,,0.00,Wunderground v.1.15,2013-02-09 23:35:00,
2013-02-09 18:40:00,15.2,12.3,30.43,SSE,149,0.0,0.0,88,0.00,,,0.00,Wunderground v.1.15,2013-02-09 23:40:00,
2013-02-09 18:50:00,14.5,11.9,30.43,SSE,150,0.0,0.0,89,0.00,,,0.00,Wunderground v.1.15,2013-02-09 23:50:00,
2013-02-09 19:00:00,13.6,11.0,30.43,SSE,150,0.0,0.0,89,0.00,,,0.00,Wunderground v.1.15,2013-02-10 00:00:00,
2013-02-09 19:05:00,13.5,11.1,30.43,SSE,149,0.0,0.0,90,0.00,,,0.00,Wunderground v.1.15,2013-02-10 00:05:00,
2013-02-09 19:10:00,13.4,11.0,30.43,SSE,149,0.0,0.0,90,0.00,,,0.00,Wunderground v.1.15,2013-02-10 00:10:00,
2013-02-09 19:15:00,13.1,10.7,30.43,SSE,150,0.0,0.0,90,0.00,,,0.00,Wunderground v.1.15,2013-02-10 00:15:00,
2013-02-09 19:20:00,12.9,10.8,30.43,SSE,150,0.0,0.0,91,0.00,,,0.00,Wunderground v.1.15,2013-02-10 00:20:00,
2013-02-09 19:25:00,12.6,10.2,30.43,SSE,149,0.0,0.0,90,0.00,,,0.00,Wunderground v.1.15,2013-02-10 00:25:00,
2013-02-09 19:30:00,12.1,9.7,30.43,SSE,149,0.0,0.0,90,0.00,,,0.00,Wunderground v.1.15,2013-02-10 00:30:00,
2013-02-09 19:35:00,11.9,9.8,30.43,SSE,150,0.0,0.0,91,0.00,,,0.00,Wunderground v.1.15,2013-02-10 00:35:00,
2013-02-09 19:40:00,12.4,10.5,30.43,South,186,0.0,0.0,92,0.00,,,0.00,Wunderground v.1.15,2013-02-10 00:40:00,
2013-02-09 19:50:00,13.0,11.4,30.43,South,186,0.0,0.0,93,0.00,,,0.00,Wunderground v.1.15,2013-02-10 00:50:00,
2013-02-09 20:00:00,12.5,10.6,30.43,South,186,0.0,0.0,92,0.00,,,0.00,Wunderground v.1.15,2013-02-10 01:00:00,
2013-02-09 20:10:00,11.4,9.3,30.44,South,186,0.0,0.0,91,0.00,,,0.00,Wunderground v.1.15,2013-02-10 01:10:00,
2013-02-09 20:20:00,11.2,9.3,30.44,South,186,0.0,0.0,92,0.00,,,0.00,Wunderground v.1.15,2013-02-10 01:20:00,
2013-02-09 20:25:00,11.0,8.9,30.44,South,186,0.0,0.0,91,0.00,,,0.00,Wunderground v.1.15,2013-02-10 01:25:00,
2013-02-09 20:30:00,10.7,8.6,30.44,South,186,0.0,0.0,91,0.00,,,0.00,Wunderground v.1.15,2013-02-10 01:30:00,
2013-02-09 20:40:00,11.1,9.2,30.44,South,186,0.0,0.0,92,0.00,,,0.00,Wunderground v.1.15,2013-02-10 01:40:00,
2013-02-09 20:45:00,11.0,9.1,30.44,South,185,0.0,0.0,92,0.00,,,0.00,Wunderground v.1.15,2013-02-10 01:45:00,
2013-02-09 20:55:00,11.5,9.9,30.44,South,186,0.0,0.0,93,0.00,,,0.00,Wunderground v.1.15,2013-02-10 01:55:00,
2013-02-09 21:05:00,12.2,10.8,30.44,South,187,0.0,0.0,94,0.00,,,0.00,Wunderground v.1.15,2013-02-10 02:05:00,
2013-02-09 21:10:00,12.2,10.6,30.44,South,187,0.0,0.0,93,0.00,,,0.00,Wunderground v.1.15,2013-02-10 02:10:00,
2013-02-09 21:20:00,12.5,11.1,30.44,South,188,0.0,0.0,94,0.00,,,0.00,Wunderground v.1.15,2013-02-10 02:20:00,
2013-02-09 21:25:00,12.7,11.3,30.44,South,187,0.0,0.0,94,0.00,,,0.00,Wunderground v.1.15,2013-02-10 02:25:00,
2013-02-09 21:35:00,13.0,11.6,30.44,South,187,0.0,0.0,94,0.00,,,0.00,Wunderground v.1.15,2013-02-10 02:35:00,
2013-02-09 21:45:00,12.9,11.3,30.45,South,187,0.0,0.0,93,0.00,,,0.00,Wunderground v.1.15,2013-02-10 02:45:00,
2013-02-09 21:55:00,13.1,11.5,30.44,South,170,0.0,0.0,93,0.00,,,0.00,Wunderground v.1.15,2013-02-10 02:55:00,
2013-02-09 22:05:00,13.6,12.0,30.44,South,190,0.0,0.0,93,0.00,,,0.00,Wunderground v.1.15,2013-02-10 03:05:00,
2013-02-09 22:10:00,13.6,12.0,30.44,SSW,201,0.0,0.0,93,0.00,,,0.00,Wunderground v.1.15,2013-02-10 03:10:00,
2013-02-09 22:15:00,13.7,12.1,30.44,South,170,0.0,0.0,93,0.00,,,0.00,Wunderground v.1.15,2013-02-10 03:15:00,
2013-02-09 22:20:00,13.7,11.8,30.43,SSE,165,0.0,0.0,92,0.00,,,0.00,Wunderground v.1.15,2013-02-10 03:20:00,
2013-02-09 22:30:00,13.7,11.8,30.43,SSE,154,0.0,0.0,92,0.00,,,0.00,Wunderground v.1.15,2013-02-10 03:30:00,
2013-02-09 22:35:00,13.6,11.7,30.43,SSE,153,0.0,0.0,92,0.00,,,0.00,Wunderground v.1.15,2013-02-10 03:35:00,
2013-02-09 22:45:00,13.2,11.3,30.43,SSE,153,0.0,0.0,92,0.00,,,0.00,Wunderground v.1.15,2013-02-10 03:45:00,
2013-02-09 22:50:00,12.8,10.7,30.43,SSE,153,0.0,0.0,91,0.00,,,0.00,Wunderground v.1.15,2013-02-10 03:50:00,
2013-02-09 22:55:00,12.3,10.2,30.43,SSE,153,0.0,0.0,91,0.00,,,0.00,Wunderground v.1.15,2013-02-10 03:55:00,
2013-02-09 23:00:00,12.1,10.0,30.43,SSE,155,0.0,0.0,91,0.00,,,0.00,Wunderground v.1.15,2013-02-10 04:00:00,
2013-02-09 23:10:00,12.6,10.7,30.42,SSE,155,0.0,0.0,92,0.00,,,0.00,Wunderground v.1.15,2013-02-10 04:10:00,
2013-02-09 23:15:00,12.9,11.3,30.43,SSW,195,0.0,0.0,93,0.00,,,0.00,Wunderground v.1.15,2013-02-10 04:15:00,
2013-02-09 23:25:00,12.9,11.0,30.43,SSW,194,0.0,0.0,92,0.00,,,0.00,Wunderground v.1.15,2013-02-10 04:25:00,
2013-02-09 23:30:00,12.9,11.0,30.43,SSW,194,0.0,0.0,92,0.00,,,0.00,Wunderground v.1.15,2013-02-10 04:30:00,
2013-02-09 23:35:00,12.8,10.9,30.43,SSW,194,0.0,0.0,92,0.00,,,0.00,Wunderground v.1.15,2013-02-10 04:35:00,
2013-02-09 23:40:00,12.6,10.7,30.43,South,191,0.0,0.0,92,0.00,,,0.00,Wunderground v.1.15,2013-02-10 04:40:00,
2013-02-09 23:50:00,12.4,10.5,30.43,SE,144,0.0,0.0,92,0.00,,,0.00,Wunderground v.1.15,2013-02-10 04:50:00,
2013-02-09 23:55:00,12.3,10.2,30.43,ESE,119,0.0,0.0,91,0.00,,,0.00,Wunderground v.1.15,2013-02-10 04:55:00,